Skip Page Navigation
NASA JPL Caltech
NASA Logo - Jet Propulsion Laboratory + View the NASA Portal
+ Center for Near-Earth Object Studies
JPL Home Earth Solar System Stars & Galaxies Technology
JPL Solar System Dynamics
BODIES ORBITS EPHEMERIDES TOOLS PHYSICAL DATA DISCOVERY FAQ SITE MAP
JPL Small-Body Database Browser
Search: [ help ]  
226304 (2003 BE82)
Classification: Main-belt Asteroid          SPK-ID: 2226304
Ephemeris | Orbit Diagram | Orbital Elements | Mission Design | Physical Parameters | Discovery Circumstances | Close-Approach Data ]

[ show orbit diagram ]
Orbital Elements at Epoch 2459000.5 (2020-May-31.0) TDB
Reference: JPL 11 (heliocentric ecliptic J2000)
 Element Value Uncertainty (1-sigma)   Units 
e .1822171666009116 5.4266e-08  
a 2.405180147582107 1.5397e-08 au
q 1.966915035924933 1.2537e-07 au
i 2.598312191604693 6.0052e-06 deg
node 149.3582709790498 0.00011981 deg
peri 295.226788787718 0.00012114 deg
M 274.2520712399684 1.8462e-05 deg
tp 2459325.019636117215
(2021-Apr-20.51963612)
7.135e-05 TDB
period 1362.447707969038
3.73
1.3083e-05
3.582e-08
d
yr
n .2642303245066496 2.5372e-09 deg/d
Q 2.84344525923928 1.8202e-08 au
  Orbit Determination Parameters
   # obs. used (total)      353  
   data-arc span      5556 days (15.21 yr)  
   first obs. used      2003-01-30  
   last obs. used      2018-04-17  
   planetary ephem.      DE431  
   SB-pert. ephem.      SB431-N16  
   condition code      0  
   norm. resid. RMS      .61219  
   source      ORB  
   producer      Otto Matic  
   solution date      2019-Jul-13 17:24:55  

Additional Information
 Earth MOID = .984738 au 
 Jupiter MOID = 2.37953 au 
 T_jup = 3.499 
[ show covariance matrix ]

Ephemeris | Orbit Diagram | Orbital Elements | Mission Design | Physical Parameters | Discovery Circumstances | Close-Approach Data ]

Physical Parameter Table
Parameter Symbol Value Units Sigma Reference Notes
absolute magnitude H 16.7   n/a MPO281212  

226304 (2003 BE82)          Discovered 2003-Jan-30 by LONEOS at Anderson Mesa
Reference: 20091202/Numbers.arcLast Updated: 2009-12-04

[ show close-approach data ]
Ephemeris | Orbit Diagram | Orbital Elements | Mission Design | Physical Parameters | Discovery Circumstances | Close-Approach Data ]
ABOUT SSD CREDITS/AWARDS PRIVACY/COPYRIGHT GLOSSARY LINKS
FirstGov 2020-Aug-08 12:36 UT
(server date/time)  
NASA Home Page
Site Manager:   Ryan S. Park
Webmaster  Alan B. Chamberlin